Tracking 25620 objects as of 18-May-2022
HD Live streaming from Space Station
objects crossing your sky now

USA 12

Track USA 12 now!
USA 12 is classified as:


NORAD ID: 16117
Int'l Code: 1985-092C
Perigee: 36,109.4 km
Apogee: 36,204.3 km
Inclination: 15.0 °
Period: 1,454.7 minutes
Semi major axis: 42527 km
RCS: Unknown
Launch date: October 3, 1985
Source: United States (US)
Launch site: AIR FORCE EASTERN TEST RANGE (AFETR)
aabbcc
Your satellite tracking list
Your tracking list is empty




NASA's NSSDC Master Catalog

Two Line Element Set (TLE):
1 16117U 85092C   22137.30865196 -.00000097  00000-0  00000-0 0  9990
2 16117  15.0265 357.4876 0011161  77.9110 105.7748  0.98990395 10951
Source of the keplerian elements: McCants